Tracking 20712 objects as of 30-May-2020
HD Live streaming from Space Station
objects crossing your sky now

FLOCK 2K 11

Track FLOCK 2K 11 now!
10-day predictions
FLOCK 2K 11 is classified as:


NORAD ID: 42894
Int'l Code: 2017-042BX
Perigee: 441.5 km
Apogee: 457.7 km
Inclination: 96.9 °
Period: 93.4 minutes
Semi major axis: 6820 km
RCS: Unknown
Launch date: July 14, 2017
Source: United States (US)
Launch site: TYURATAM MISSILE AND SPACE COMPLEX (TTMTR)
aabbcc
Your satellite tracking list
Your tracking list is empty




NASA's NSSDC Master Catalog

Two Line Element Set (TLE):
1 42894U 17042BX  20150.88487571 +.00002469 +00000-0 +61147-4 0  9991
2 42894 096.8959 019.9130 0011847 033.7915 326.4085 15.41237035161251
Source of the keplerian elements: AFSPC